Simultaneous Nadir Overpasses (SNOs) Predictions

Prediction of SNOs between GOES-16 and METOP-C Satellite Orbit:

Table of predicted SNOs for the next 14.0 days since TLE Epoch: 10/2/2021
Index Date Time (GOES-16) GOES-16 Lat,Lon METOP-C Lat,Lon Distance(km) Time Diff (sec)
1 10/02/2021 02:47:02 -0.09, -75.18 0.00, -78.74 395.25 80
2 10/03/2021 02:23:30 -0.09, -75.19 0.30, -73.56 185.84 80
3 10/04/2021 14:45:01 0.10, -75.21 0.74, -78.11 330.35 80
4 10/05/2021 14:21:43 0.09, -75.22 -0.39, -73.12 239.13 80
5 10/07/2021 02:43:25 -0.10, -75.21 -0.64, -77.72 286.15 80
6 10/08/2021 02:20:05 -0.09, -75.21 0.44, -72.72 283.59 80
7 10/09/2021 14:41:38 0.11, -75.24 0.55, -77.28 231.99 80
8 10/10/2021 14:18:19 0.11, -75.25 -0.58, -72.29 337.88 80
9 10/12/2021 02:40:01 -0.12, -75.24 -0.49, -76.88 186.89 80
10 10/13/2021 02:16:42 -0.12, -75.25 0.64, -71.89 383.17 80
11 10/14/2021 14:38:14 0.13, -75.29 0.36, -76.45 131.91 80
12 10/15/2021 14:14:55 0.12, -75.30 -0.72, -71.45 438.72 80
